sat.trackr.live / text

‹ back to catalog

STARLINK-3525

NORAD 51733 · 2022-016V

PAYLOAD ACTIVE UNKNOWN

§ Identity

Operator
Country
US
Launch date
2022-02-21
Launch site
AFETR
Launch vehicle
Mass (kg)
RCS (m²)

Purposes: comms

External: N2YO · Heavens-Above · Gunter

§ Orbital elements

Epoch: 2026-09-20T04:27:28.348128Z

Period
93.85 min
Inclination
53.1588°
Eccentricity
0.0001220
Mean motion
15.34396542 rev/d
Perigee alt
461.9 km
Apogee alt
463.5 km
Semi-major
6,840.9 km
B*
4.6081e-5
RAAN
150.9637°
Arg perigee
83.2475°
Mean anomaly
276.8667°
Rev number
25,313

§ Raw data

STARLINK-35251 51733U 22016V   26263.18574477  .00001181  00000+0  46081-4 0  99952 51733  53.1588 150.9637 0001220  83.2475 276.8667 15.34396542253134

JSON: /api/v1/satellites/51733 · /tle

For live sub-satellite position, see the globe view (requires WebGL).

§ Visibility from observer

Set your observer location to see the next 7 days of passes ≥ 10°. The values pass through the URL so the page stays shareable.

No JS? Fill the form by hand. The geolocation button needs JavaScript.